Regional Weather Roundup
Issued by NWS

Home | Current Version | Previous Version | Text Only | Print | Product List | Glossary Off
Versions: 1 2 3 4 5 6 7 8 9 10 11 12 13 14 15 16 17 18 19 20 21 22 23 24 25 26 27 28 29 30 31 32 33 34 35 36 37 38 39 40 41 42 43 44 45 46 47 48 49 50

000
ASUS43 KMKX 010400
RWRWI

WISCONSIN REGIONAL WEATHER ROUNDUP
NATIONAL WEATHER SERVICE MILWAUKEE/SULLIVAN WI
1100 PM CDT TUE JUN 30 2015

NOTE: "FAIR" INDICATES FEW OR NO CLOUDS BELOW 12,000 FEET WITH NO
SIGNIFICANT WEATHER AND/OR OBSTRUCTIONS TO VISIBILITY.

WIZ001-002-006>008-014>016-023>028-010500-
NORTHWEST WISCONSIN

CITY           SKY/WX    TMP DP  RH WIND       PRES   REMARKS
SUPERIOR ARPT  CLEAR     52  50  93 NE3       29.99S
ASHLAND        CLEAR     43  43 100 CALM      30.01R
HAYWARD        CLEAR     51  48  89 NE3       29.99S
SIREN          CLEAR     58  51  79 CALM      29.98R
CUMBERLAND     CLEAR     55  48  76 CALM      29.99R
RICE LAKE      CLEAR     56  49  77 NE6       30.00S
CHETEK         CLEAR     59  51  74 NE6       29.99S
LADYSMITH      CLEAR     52  49  87 N3        30.01R
EAU CLAIRE     CLEAR     57  48  72 NE6       29.96S
MENOMONIE      CLEAR     60  50  68 NE5       29.98R
NEW RICHMOND   CLEAR     59  51  73 E6        29.98R
OSCEOLA        CLEAR     61  55  81 E7        29.99S
$$

WIZ003>005-009-010-017-018-010500-
NORTH CENTRAL WISCONSIN

CITY           SKY/WX    TMP DP  RH WIND       PRES   REMARKS
MANITOWISH WTR CLEAR     43  43 100 CALM      30.00R
ARBOR VITAE    CLEAR     45  42  90 CALM      30.00R
WOODRUFF       CLEAR     45  42  90 CALM      30.00R
RHINELANDER    CLEAR     48  44  86 CALM      29.99S
EAGLE RIVER    CLEAR     45  44  99 CALM      29.99S
LAND O LAKES   CLEAR     43  42  97 CALM      30.00S
PHILLIPS       CLEAR     46  45  97 CALM      29.99F
TOMAHAWK       CLEAR     44  41  89 CALM      30.00R
MEDFORD        CLEAR     51  47  86 CALM      29.98S
MERRILL        CLEAR     48  46  93 CALM      29.99R
$$

WIZ029-030-035-036-043>047-010500-
CENTRAL WISCONSIN

CITY           SKY/WX    TMP DP  RH WIND       PRES   REMARKS
WAUSAU         CLEAR     54  46  74 N6        29.96S
MOSINEE        CLEAR     54  46  76 N7        29.98S
MARSHFIELD     CLEAR     58  44  60 NE8       29.97R
STEVENS POINT  CLEAR     53  47  78 N6        29.97S
WAUPACA        CLEAR     60  53  77 N5        29.96R
WAUTOMA        NOT AVBL
WISC RAPIDS    CLEAR     59  46  62 NE9       29.97R
CAMP DOUGLAS   PTCLDY    54  54 100 VRB2      29.94S
$$

WIZ011>013-019>022-031-037>040-048>050-010500-
NORTHEAST WISCONSIN

CITY           SKY/WX    TMP DP  RH WIND       PRES   REMARKS
ANTIGO         CLEAR     47  46  96 NE5       29.98R
SHAWANO        CLEAR     56  48  74 N7        29.97R
OCONTO         CLEAR     49  49 100 CALM      29.94S
STURGEON BAY   CLOUDY    55  45  67 N13       29.95S
GREEN BAY      CLEAR     53  49  86 N7        29.96R
MANITOWOC      CLOUDY    55  54  94 MISG      29.93S
APPLETON       PTCLDY    55  48  76 N9        29.96R
CLINTONVILLE   CLEAR     54  46  76 N7        29.96S
OSHKOSH        MOCLDY    61  51  70 N13       29.93R
$$

WIZ032>034-041-042-053>061-010500-
SOUTHWEST WISCONSIN

CITY           SKY/WX    TMP DP  RH WIND       PRES   REMARKS
LA CROSSE      CLEAR     63  55  75 N6        29.94R
SPARTA         PTCLDY    55  52  89 CALM      29.96R
VIROQUA        CLEAR     58  56  93 CALM      29.96R
BOSCOBEL       PTCLDY    61  58  90 CALM      29.94R
PRAIRIE DU CHI CLEAR     62  56  79 CALM      29.92S
PLATTEVILLE    CLEAR     62  59  91 N5        29.93R
$$

WIZ056-057-062-063-064-067-068-010500-
SOUTH CENTRAL WISCONSIN

CITY           SKY/WX    TMP DP  RH WIND       PRES   REMARKS
REEDSBURG      CLEAR     61  54  77 N3        29.93S
BARABOO/DELLS  MOCLDY    61  53  76 CALM      29.93F
LONE ROCK      NOT AVBL
MINERAL POINT  CLEAR     63  57  82 N8        29.94R
MADISON        PTCLDY    62  54  74 N3        29.91S
MIDDLETON      CLEAR     62  55  79 CALM      29.93S
WATERTOWN      CLOUDY    61  61 100 SE7       29.92R
MONROE         CLEAR     63  57  82 N10       29.91S
JANESVILLE     MOCLDY    66  59  77 E6        29.90R
$$

WIZ051-052-058>065-066-070>072-010500-
SOUTHEAST WISCONSIN

CITY           SKY/WX    TMP DP  RH WIND       PRES   REMARKS
MILWAUKEE      MOCLDY    54  50  86 NE7       29.94R
WAUKESHA       MOCLDY    54  50  87 NE6       29.95R
MILWAUKEE/TIMM MOCLDY    54  48  82 NE7       29.94S
RACINE         CLOUDY    55  50  83 NE8       29.95R
BURLINGTON     MOCLDY    55  52  89 NE3       29.94R
KENOSHA        CLOUDY    56  52  86 NE5       29.94R
FOND DU LAC    CLOUDY    63  55  75 NE8       29.93R
SHEBOYGAN      CLOUDY    54  51  90 NE5       29.94R
WEST BEND      PTCLDY    54  50  87 E3        29.94R
JUNEAU         MOCLDY    61  57  87 E7        29.93R
$$

LSZ147-162-010500-
LAKE SUPERIOR

STATION/POSITION TIME  TEMP    WIND        PRES    WAVE
                       AIR SEA DIR/SP/G            HT/PER
                 (UTC) (F)     (DEG/KT/KT) (MB)    (FT/S)
W MID LAKE BUOY  0250   46 38  300/  4/  4 1016.5R   1/ 5
DEVILS ISLAND    0300   55     130/  7/  8 1016.3R
SAXON HARBOR     0340   47        CALM     1015.9R
$$

LMZ867-665-643>646-010500-
LAKE MICHIGAN

STATION/POSITION TIME  TEMP    WIND        PRES    WAVE
                       AIR SEA DIR/SP/G            HT/PER
                 (UTC) (F)     (DEG/KT/KT) (MB)    (FT/S)
CHAMBERS ISLAND  0300   58     330/ 14/ 16 1013.5R
N MID LAKE BUOY  0250   47 41  310/ 12/ 14 1012.9R   3/ 4
NORTHPORT PIER   0300   54     340/ 16/ 19 1013.5R
SISTER BAY       0244   55      20/ 14/ 22   N/A
ALGOMA LAKESHORE 0310          350/  6/  9   N/A
KEWAUNEE LAKESHO 0300   58     360/ 11/ 15 1013.0R
SHEBOYGAN LAKESH 0300   54      40/ 15/ 16 1013.7R
PORT WASHINGTON  0300   57      40/ 11/ 16 1014.2
ATWATER BUOY     0300   56      20/ 12/ 16 1014.5R
MILWAUKEE LAKESH 0300   55      20/  9/ 11   N/A
KENOSHA   LAKESH 0200   58      20/ 11/ 12 1012.5R
$$

TC  - TEMPERATURE IN CELSIUS
VSB - VISIBILITY IN STATUTE MILES
WCI - WIND CHILL INDEX
HX  - HEAT INDEX



USA.gov is the U.S. government's official web portal to all federal, state and local government web resources and services.